Dewpoint
-6 -3 -2 -1 -1 -2 -2 -2 -2 -2 -1 -1 -1 -0 -0 -0 -0 -0 -0 -0 -1 -2 -6 -9 -9 -8 -7 -7 -7 -9 -11 -14 -16 -15 -14 -15 -18 -18 -17 -18 -19 -20 -20
-7 -6 -5 -4 -4 -4 -5 -5 -5 -4 -4 -4 -3 -3 -2 -2 -1 -0 0 0 0 0 0 -2 -4 -8 -8 -8 -7 -7 -7 -9 -14 -14 -12 -12 -15 -17 -17 -18 -19 -19 -19
-6 -6 -6 -5 -6 -6 -6 -6 -7 -7 -7 -7 -6 -6 -6 -6 -4 -3 -2 -1 0 1 1 1 0 -2 -4 -7 -8 -8 -7 -8 -10 -13 -13 -11 -12 -15 -16 -17 -19 -19 -19
-6 -6 -6 -6 -7 -9 -9 -9 -9 -9 -9 -8 -8 -9 -9 -9 -8 -7 -5 -3 -1 -0 1 1 1 0 -1 -2 -6 -8 -8 -8 -8 -11 -12 -12 -11 -9 -12 -15 -18 -19 -18
-6 -8 -9 -8 -8 -8 -8 -9 -9 -8 -8 -8 -7 -7 -7 -6 -6 -6 -6 -6 -6 -3 -1 0 1 1 1 -0 -3 -5 -7 -8 -8 -9 -10 -12 -11 -6 -3 -12 -16 -15 -16
-7 -7 -8 -9 -10 -13 -14 -16 -16 -15 -13 -12 -10 -10 -9 -8 -7 -6 -5 -4 -4 -4 -4 -4 -2 1 1 1 -1 -3 -5 -7 -8 -8 -8 -10 -10 -7 -2 -5 -13 -11 -11
-8 -10 -16 -21 -23 -26 -28 -29 -29 -30 -29 -28 -26 -21 -17 -14 -9 -6 -5 -4 -4 -4 -4 -4 -3 -2 0 1 1 -1 -4 -5 -6 -7 -8 -8 -10 -5 -3 -6 -11 -12 -11
-17 -20 -24 -26 -27 -27 -26 -27 -28 -29 -30 -29 -29 -28 -26 -26 -21 -16 -11 -6 -4 -4 -4 -4 -4 -3 -1 -0 1 -0 -3 -4 -5 -4 -6 -7 -6 -3 -3 -4 -9 -9 -10
-22 -23 -24 -21 -19 -19 -20 -24 -28 -29 -30 -30 -28 -27 -26 -26 -24 -20 -17 -16 -15 -11 -6 -4 -4 -3 -3 -1 0 0 -1 -3 -4 -6 -8 -5 -6 -3 -3 -5 -8 -9 -10
-22 -20 -19 -17 -17 -18 -22 -27 -29 -28 -27 -26 -24 -23 -21 -20 -20 -18 -16 -14 -12 -12 -12 -11 -4 -4 -4 -2 -1 -1 -1 -1 -2 -4 -5 -5 -4 -4 -4 -8 -12 -10 -9
-19 -17 -15 -17 -20 -25 -27 -27 -25 -23 -22 -21 -21 -20 -18 -17 -16 -15 -16 -15 -12 -11 -8 -8 -9 -7 -4 -3 -2 -1 -1 -2 -3 -4 -3 -3 -4 -4 -5 -9 -7 -8 -6
-15 -15 -18 -22 -25 -26 -24 -23 -21 -20 -19 -18 -18 -18 -16 -14 -12 -11 -11 -12 -12 -11 -10 -6 -6 -7 -6 -4 -3 -2 -2 -3 -5 -4 -3 -4 -4 -4 -5 -6 -7 -8 -7
-16 -20 -23 -26 -26 -23 -22 -21 -20 -20 -19 -18 -17 -16 -16 -15 -14 -12 -9 -9 -11 -10 -11 -9 -4 -4 -5 -4 -4 -3 -3 -4 -4 -4 -4 -4 -4 -5 -8 -8 -7 -6 -6
-21 -24 -25 -24 -23 -22 -20 -21 -22 -23 -22 -22 -22 -22 -21 -18 -14 -10 -8 -5 -5 -7 -10 -9 -8 -4 -4 -4 -4 -4 -3 -4 -4 -4 -4 -4 -5 -7 -8 -7 -7 -7 -6
-25 -24 -24 -23 -21 -20 -20 -20 -20 -19 -18 -18 -19 -20 -16 -14 -10 -6 -5 -5 -5 -4 -5 -5 -6 -6 -4 -4 -5 -5 -4 -4 -4 -5 -5 -5 -6 -6 -7 -7 -7 -7 -7
-25 -24 -23 -21 -19 -18 -18 -18 -18 -18 -19 -20 -22 -21 -21 -17 -17 -11 -6 -6 -6 -6 -5 -5 -4 -4 -5 -4 -4 -5 -5 -4 -4 -5 -5 -5 -6 -7 -7 -7 -7 -8 -8
-24 -23 -23 -20 -17 -16 -16 -15 -14 -18 -19 -21 -21 -21 -19 -17 -14 -8 -6 -6 -6 -6 -7 -7 -6 -6 -5 -5 -5 -5 -5 -5 -5 -5 -5 -6 -6 -7 -7 -7 -8 -8 -8
-24 -23 -21 -20 -18 -16 -14 -14 -15 -16 -17 -19 -20 -18 -19 -16 -12 -8 -6 -6 -7 -7 -7 -7 -7 -7 -6 -5 -5 -5 -5 -5 -5 -6 -6 -6 -7 -7 -7 -8 -8 -8 -8
-21 -21 -20 -19 -18 -18 -17 -17 -16 -15 -15 -15 -17 -19 -13 -12 -9 -7 -7 -6 -7 -7 -7 -7 -7 -6 -6 -6 -6 -6 -6 -6 -6 -6 -6 -6 -7 -7 -8 -8 -8 -8 -9
-16 -16 -16 -15 -15 -14 -14 -13 -13 -12 -10 -9 -8 -8 -8 -7 -7 -7 -7 -7 -7 -7 -7 -7 -7 -7 -6 -6 -6 -6 -6 -6 -6 -6 -6 -7 -7 -7 -8 -8 -8 -9 -9
-14 -13 -13 -12 -11 -11 -11 -9 -7 -7 -7 -7 -7 -7 -7 -7 -8 -8 -8 -7 -7 -7 -7 -7 -7 -7 -7 -7 -6 -7 -7 -7 -6 -6 -7 -7 -7 -7 -8 -8 -9 -10 -11
-13 -12 -11 -10 -10 -9 -7 -7 -7 -8 -8 -8 -8 -8 -8 -8 -8 -8 -7 -7 -7 -7 -7 -8 -7 -7 -7 -7 -7 -7 -7 -7 -7 -7 -7 -7 -7 -8 -8 -9 -10 -11 -12
-12 -11 -11 -10 -8 -7 -7 -7 -7 -8 -8 -8 -8 -9 -9 -8 -8 -8 -8 -7 -7 -7 -8 -8 -7 -7 -7 -7 -7 -7 -7 -7 -7 -7 -8 -8 -8 -8 -9 -10 -12 -12 -13
-11 -11 -9 -7 -7 -7 -7 -8 -8 -8 -8 -8 -9 -8 -9 -9 -8 -8 -8 -8 -8 -8 -8 -7 -8 -8 -7 -7 -7 -7 -7 -7 -8 -8 -8 -8 -8 -9 -11 -12 -12 -13 -11
-11 -9 -8 -8 -7 -8 -8 -9 -9 -8 -9 -9 -9 -9 -8 -8 -8 -8 -8 -8 -8 -8 -8 -8 -8 -8 -8 -7 -7 -7 -8 -8 -8 -8 -8 -9 -9 -12 -12 -12 -12 -11 -11
-10 -10 -8 -8 -8 -8 -9 -9 -9 -9 -9 -9 -9 -8 -8 -8 -9 -9 -8 -9 -9 -9 -9 -8 -8 -8 -8 -8 -8 -8 -8 -8 -9 -9 -9 -10 -13 -12 -13 -12 -11 -11 -11
Wind_Speed
11 12 13 14 15 15 15 15 15 15 16 17 19 21 22 23 24 25 26 26 28 27 28 28 28 27 27 26 26 25 26 25 28 27 25 24 24 23 23 23 22 23 22
7 7 8 10 11 12 13 14 16 17 18 20 22 24 25 26 27 29 29 29 30 30 30 31 31 30 31 30 30 30 29 29 30 30 28 27 26 25 24 24 23 23 24
7 7 8 10 11 12 14 15 15 17 17 18 20 22 23 24 26 28 29 31 33 34 33 34 33 32 34 34 34 33 32 32 32 34 32 30 29 28 28 26 25 25 24
7 8 8 9 9 9 10 11 12 14 16 17 18 20 22 23 25 27 28 29 31 33 34 36 36 36 36 35 36 36 34 35 34 35 35 34 32 30 30 29 28 26 26
5 4 4 5 7 9 11 13 15 16 18 19 21 21 22 23 24 25 27 28 30 32 33 35 36 37 37 36 37 37 36 37 37 37 38 37 35 34 33 29 29 28 27
3 3 5 7 10 12 15 17 19 20 22 23 24 26 26 27 27 27 28 30 30 31 32 33 35 36 37 37 38 38 37 37 38 39 41 41 38 35 35 27 28 27 26
2 4 7 9 12 15 18 20 21 23 24 25 26 27 28 29 29 30 30 32 33 33 33 33 34 35 35 37 37 37 38 37 38 39 41 41 38 37 31 26 28 28 30
3 6 10 13 16 18 21 24 26 28 29 30 30 30 31 30 30 32 32 34 36 36 35 34 35 35 34 35 37 38 38 38 37 39 41 38 38 34 34 28 27 30 30
6 9 12 16 19 23 27 30 31 33 33 33 33 34 34 34 31 31 33 37 39 40 39 37 36 36 33 33 37 38 38 38 37 38 39 40 36 35 35 30 32 31 32
8 12 16 20 24 28 31 33 33 33 34 34 34 33 33 35 32 31 31 35 39 40 40 39 36 36 35 35 35 38 38 37 37 36 35 38 38 33 30 30 28 30 29
13 17 21 24 27 30 31 31 32 32 33 34 36 36 35 34 34 33 31 33 36 41 41 41 37 35 35 37 35 37 38 34 34 31 32 32 30 29 30 28 30 30 30
17 21 24 28 30 30 30 29 30 32 34 35 37 38 36 34 32 30 29 29 32 36 40 41 39 34 35 37 32 34 35 34 32 32 30 30 30 29 27 27 29 32 31
21 25 28 29 28 28 29 30 31 31 33 35 37 40 40 39 38 35 32 30 30 33 36 39 36 35 34 36 35 33 33 34 32 32 33 31 31 26 23 24 25 26 29
26 28 28 29 30 29 28 29 30 30 32 34 36 39 41 42 41 41 39 38 38 36 37 39 40 38 34 35 35 33 34 35 38 37 34 29 27 25 25 25 26 25 27
28 29 29 30 29 30 28 28 30 30 32 37 38 39 39 41 39 35 34 34 33 34 33 36 38 40 42 36 36 38 36 36 37 37 32 28 27 27 27 27 26 27 28
30 30 30 31 30 30 32 34 32 34 35 35 36 36 38 36 39 38 32 32 33 32 33 35 34 35 39 41 39 35 37 38 35 34 32 28 27 27 27 27 27 27 27
30 30 31 31 31 33 34 36 42 42 39 39 38 36 37 38 36 34 34 35 34 29 32 32 32 33 35 38 40 40 34 36 35 31 31 29 28 29 27 26 27 26 26
29 29 31 32 33 35 37 39 41 44 46 46 40 38 39 34 33 32 31 33 37 35 33 34 34 32 31 33 35 37 37 31 29 28 27 26 27 27 26 25 26 25 24
32 33 34 36 36 38 40 42 43 44 46 46 46 43 38 34 34 32 31 30 34 37 35 34 33 32 31 31 32 31 29 28 23 21 23 25 25 22 23 23 24 23 23
32 33 35 37 39 41 41 43 44 44 43 42 39 35 34 36 39 42 40 35 35 35 35 35 34 33 31 30 28 27 25 23 21 20 20 21 21 20 22 23 23 22 23
34 36 35 37 38 39 41 40 35 33 33 33 34 35 32 33 39 43 44 38 36 37 36 35 33 33 31 28 27 24 23 22 21 20 20 20 20 20 21 21 20 21 22
36 38 38 40 41 39 35 32 36 37 39 41 42 44 40 38 39 40 40 40 40 36 33 34 31 31 31 26 24 23 22 21 21 19 19 18 19 20 20 20 20 20 20
37 38 40 40 36 34 34 36 37 39 41 42 42 43 44 41 41 40 40 41 39 36 35 32 32 34 29 24 22 20 20 21 20 16 16 17 18 19 19 19 18 18 18
38 39 39 36 37 34 36 39 41 41 39 40 40 40 40 42 42 43 41 40 37 36 36 36 32 29 24 22 20 18 17 16 15 14 14 15 16 17 17 17 17 16 14
39 38 38 35 34 35 39 40 39 37 37 38 40 40 42 43 44 40 41 40 33 37 38 32 24 21 21 19 17 15 13 12 13 13 13 13 14 14 14 15 15 14 14
39 38 36 33 35 36 37 37 37 37 39 39 40 42 43 44 41 43 36 35 45 31 27 23 21 19 18 16 14 11 10 10 11 11 12 11 11 12 13 12 12 13 14
Wind_Direction
278 276 279 283 289 293 296 295 293 291 291 287 286 284 283 283 283 282 282 280 278 277 274 273 273 273 272 272 272 271 271 270 268 278 279 282 281 282 284 287 288 290 290
296 292 284 281 284 291 297 299 298 296 293 291 289 287 287 286 283 280 280 279 279 278 278 275 274 272 271 270 269 269 270 269 268 273 276 279 281 283 285 285 287 287 287
283 288 295 301 307 308 309 309 307 305 303 299 296 294 292 290 287 285 282 279 277 276 275 274 274 272 270 268 268 268 268 268 268 268 272 276 279 283 285 285 286 284 284
297 306 308 311 319 325 329 331 328 323 318 313 309 306 302 299 297 294 290 286 281 278 276 273 272 270 271 270 268 268 267 266 265 266 268 271 273 278 280 283 285 282 280
316 329 358 14 2 351 342 334 329 326 323 320 317 315 313 311 309 304 298 293 288 284 280 276 274 272 271 270 268 265 264 263 263 264 265 266 268 274 279 284 281 282 280
84 50 15 354 342 337 333 329 326 323 320 318 316 313 311 310 310 307 303 299 294 290 287 283 278 273 270 268 267 267 264 263 262 261 264 264 268 272 280 273 275 276 280
23 352 346 347 344 339 335 331 328 325 321 317 313 310 307 305 304 302 301 298 296 293 291 288 284 279 274 270 266 264 264 262 262 265 264 265 268 275 277 263 265 271 273
340 347 346 345 344 341 337 333 330 327 324 321 318 315 310 307 304 301 298 295 294 292 291 289 286 284 278 273 267 261 260 262 263 266 266 267 267 280 271 267 266 272 271
338 340 341 339 336 334 331 329 326 323 320 318 318 316 314 311 309 305 302 298 294 291 291 289 287 284 281 275 269 265 263 261 262 261 263 271 268 275 267 258 256 264 266
327 332 333 332 329 327 326 324 323 322 321 320 319 319 319 318 317 311 306 302 300 300 297 291 286 285 283 277 268 267 263 263 261 260 259 260 269 265 257 251 254 253 255
325 326 325 324 324 324 323 324 324 323 322 323 322 322 322 323 321 321 317 308 304 303 301 300 295 286 279 279 274 265 265 266 263 260 258 263 263 257 248 243 251 254 253
318 318 320 321 322 323 324 325 326 327 327 328 327 326 328 328 327 325 319 311 305 300 300 302 302 296 281 275 275 266 264 260 256 254 258 263 259 259 256 250 249 250 255
315 317 318 319 322 323 324 326 327 330 329 329 328 326 326 327 325 324 319 314 308 302 298 297 300 298 288 277 273 264 258 250 250 249 256 263 266 268 259 250 245 249 258
315 319 321 321 321 322 323 325 325 327 326 326 326 325 323 321 324 324 323 319 316 312 307 303 300 300 293 281 276 264 256 248 240 246 252 262 264 261 254 252 252 253 256
316 319 319 317 318 318 319 320 319 320 322 324 324 321 318 316 317 314 310 309 307 305 305 299 296 295 296 292 279 273 264 254 246 251 247 254 258 258 254 253 254 254 260
318 318 317 316 316 315 315 315 315 317 319 320 322 322 320 313 314 316 311 309 309 310 309 300 293 290 293 292 288 272 271 270 262 246 251 252 258 261 256 253 250 259 259
318 318 316 316 314 313 313 313 315 318 319 319 320 321 319 318 321 317 312 313 310 309 309 311 302 300 296 295 291 284 273 271 274 270 255 254 257 260 253 252 254 256 258
316 316 316 315 312 310 310 311 312 313 316 316 317 315 314 316 319 318 315 313 315 318 315 314 312 312 304 299 296 293 287 279 273 263 255 255 257 249 248 245 251 256 257
315 314 313 311 311 310 311 311 311 310 311 311 311 311 313 319 322 315 317 312 308 309 314 313 313 311 311 307 300 298 293 283 276 267 261 260 251 248 244 246 256 258 255
317 316 314 314 314 314 314 312 311 312 312 310 309 307 311 316 318 317 316 311 308 306 312 313 313 310 308 308 303 298 293 284 276 269 263 255 248 248 245 254 256 251 252
322 321 320 318 316 315 315 316 315 310 304 303 300 302 304 306 307 310 310 308 306 311 315 313 311 312 307 307 303 297 291 284 277 270 265 254 249 248 252 255 252 255 256
321 320 319 318 318 319 317 312 311 310 310 309 308 309 310 308 308 309 307 310 314 314 314 313 307 311 309 303 300 293 287 282 276 271 264 252 248 250 252 250 253 253 260
319 318 317 318 319 313 308 312 311 311 311 311 311 310 312 311 309 307 310 312 314 313 315 312 310 308 304 300 294 287 278 275 274 267 252 248 243 250 248 250 249 257 255
320 319 320 315 313 308 307 312 313 312 310 312 313 310 310 311 309 310 313 315 314 315 316 310 303 303 300 297 290 284 276 269 258 249 241 242 244 242 245 245 253 254 243
324 319 316 312 306 309 313 316 316 314 314 315 314 314 313 310 311 314 317 315 309 304 310 302 302 301 297 292 285 281 269 251 241 240 243 239 238 241 244 250 245 239 241
321 319 317 312 314 316 317 317 317 318 317 316 316 314 311 312 316 314 305 301 309 311 305 307 304 297 292 286 280 269 247 233 236 233 237 236 237 244 243 238 236 244 254
Height
1522 1522 1522 1521 1521 1520 1519 1517 1516 1515 1514 1513 1512 1511 1510 1508 1507 1505 1504 1502 1500 1499 1497 1496 1495 1494 1493 1492 1491 1490 1487 1486 1483 1482 1481 1480 1479 1477 1476 1474 1473 1472 1470
1519 1518 1518 1518 1517 1516 1515 1514 1512 1511 1511 1509 1508 1506 1504 1502 1500 1498 1496 1495 1493 1492 1491 1489 1487 1487 1486 1485 1483 1482 1480 1479 1477 1474 1474 1472 1471 1470 1469 1467 1466 1464 1462
1517 1516 1516 1516 1515 1514 1512 1511 1509 1507 1506 1504 1501 1499 1497 1495 1492 1490 1488 1486 1484 1483 1481 1479 1478 1477 1476 1475 1474 1473 1472 1471 1469 1466 1466 1465 1464 1463 1462 1460 1459 1456 1455
1514 1514 1514 1513 1512 1510 1509 1507 1505 1503 1502 1499 1497 1494 1491 1488 1486 1483 1480 1478 1475 1473 1472 1470 1469 1467 1466 1465 1465 1464 1464 1463 1461 1458 1457 1457 1455 1455 1452 1452 1451 1449 1448
1512 1512 1512 1511 1510 1508 1507 1505 1503 1501 1498 1495 1493 1490 1486 1483 1480 1476 1473 1470 1467 1465 1463 1460 1459 1458 1457 1456 1454 1453 1453 1452 1452 1450 1447 1447 1446 1445 1444 1444 1442 1441 1440
1511 1511 1511 1510 1508 1506 1504 1502 1500 1497 1494 1491 1488 1484 1481 1478 1475 1471 1466 1462 1459 1455 1452 1450 1447 1446 1445 1444 1443 1442 1442 1442 1440 1440 1438 1436 1437 1437 1436 1435 1434 1433 1432
1510 1509 1508 1507 1505 1503 1501 1499 1496 1492 1489 1486 1482 1478 1474 1471 1468 1463 1459 1453 1449 1447 1444 1441 1438 1436 1436 1434 1433 1430 1429 1430 1429 1430 1427 1426 1427 1428 1428 1426 1426 1425 1424
1507 1506 1505 1504 1502 1500 1497 1493 1490 1486 1482 1478 1474 1471 1466 1463 1459 1455 1451 1446 1441 1437 1435 1432 1428 1426 1425 1423 1421 1420 1418 1417 1417 1417 1416 1418 1417 1418 1417 1417 1418 1417 1416
1504 1503 1502 1500 1498 1495 1491 1487 1483 1478 1475 1470 1466 1462 1457 1453 1451 1446 1441 1435 1430 1426 1423 1420 1418 1414 1414 1413 1409 1408 1408 1406 1407 1406 1406 1405 1407 1408 1407 1407 1407 1409 1407
1501 1500 1498 1496 1492 1488 1484 1480 1476 1471 1467 1462 1457 1454 1449 1443 1440 1437 1433 1426 1419 1415 1411 1408 1407 1404 1402 1400 1397 1395 1394 1394 1394 1395 1397 1396 1397 1396 1397 1396 1399 1399 1400
1498 1496 1494 1490 1486 1482 1478 1474 1469 1465 1460 1455 1448 1445 1441 1437 1431 1427 1423 1418 1412 1403 1398 1395 1394 1394 1391 1388 1387 1383 1382 1385 1383 1384 1384 1385 1386 1386 1386 1388 1388 1390 1391
1494 1492 1489 1485 1481 1477 1472 1468 1463 1458 1452 1446 1441 1436 1433 1429 1425 1420 1415 1411 1405 1398 1391 1386 1382 1381 1379 1376 1375 1373 1373 1373 1372 1373 1372 1373 1374 1376 1376 1378 1380 1381 1383
1489 1486 1483 1479 1475 1471 1465 1460 1455 1451 1445 1440 1434 1427 1421 1417 1413 1410 1406 1401 1397 1390 1384 1378 1374 1370 1367 1364 1363 1362 1362 1361 1361 1361 1361 1362 1363 1368 1369 1371 1372 1373 1374
1483 1480 1476 1472 1468 1464 1459 1454 1449 1445 1439 1434 1428 1421 1414 1408 1404 1399 1394 1388 1385 1381 1375 1369 1364 1361 1358 1355 1353 1352 1350 1349 1349 1349 1351 1354 1356 1357 1359 1361 1363 1365 1366
1475 1472 1468 1464 1460 1456 1453 1449 1444 1440 1435 1427 1421 1415 1407 1399 1396 1393 1388 1382 1377 1373 1367 1361 1355 1350 1346 1345 1343 1342 1341 1341 1340 1341 1342 1344 1346 1347 1349 1352 1354 1356 1356
1469 1465 1461 1457 1453 1449 1444 1438 1438 1432 1426 1422 1416 1409 1401 1396 1389 1384 1380 1374 1369 1365 1359 1352 1347 1343 1339 1335 1333 1332 1331 1330 1331 1332 1334 1336 1337 1338 1340 1343 1346 1347 1347
1461 1458 1454 1450 1445 1441 1436 1431 1423 1419 1415 1411 1406 1400 1395 1388 1382 1377 1372 1366 1360 1358 1352 1346 1341 1336 1331 1328 1324 1322 1321 1321 1323 1322 1325 1327 1329 1330 1332 1334 1336 1338 1339
1456 1452 1447 1443 1438 1434 1429 1423 1417 1411 1402 1396 1395 1391 1385 1380 1374 1370 1366 1359 1351 1347 1344 1338 1333 1328 1324 1320 1317 1315 1313 1313 1313 1314 1317 1318 1319 1321 1323 1325 1328 1329 1331
1449 1444 1440 1436 1431 1426 1420 1414 1408 1403 1396 1388 1382 1379 1374 1370 1365 1361 1357 1352 1345 1339 1335 1330 1326 1321 1317 1313 1309 1307 1306 1306 1306 1307 1308 1310 1312 1314 1316 1319 1321 1322 1324
1443 1438 1433 1427 1421 1416 1411 1404 1398 1393 1386 1380 1374 1370 1366 1362 1355 1350 1348 1344 1338 1332 1327 1322 1318 1314 1309 1306 1302 1300 1300 1299 1300 1300 1301 1303 1305 1307 1309 1312 1313 1315 1317
1435 1430 1426 1420 1414 1408 1402 1395 1390 1386 1380 1375 1370 1365 1363 1358 1350 1345 1338 1334 1330 1324 1319 1314 1310 1306 1302 1299 1296 1294 1293 1293 1294 1294 1295 1296 1299 1301 1303 1305 1306 1308 1309
1428 1423 1417 1411 1405 1399 1394 1389 1385 1379 1374 1368 1362 1356 1353 1349 1343 1337 1331 1325 1320 1316 1312 1306 1302 1299 1295 1292 1289 1288 1287 1287 1287 1288 1289 1290 1293 1295 1297 1298 1300 1301 1302
1421 1415 1409 1403 1397 1392 1386 1382 1377 1372 1366 1359 1354 1348 1342 1337 1333 1327 1321 1316 1311 1306 1303 1298 1293 1290 1287 1284 1282 1281 1280 1280 1281 1282 1283 1285 1287 1289 1291 1292 1294 1295 1296
1413 1407 1400 1394 1389 1385 1380 1374 1368 1362 1357 1351 1345 1340 1334 1329 1323 1317 1312 1307 1302 1297 1293 1288 1285 1281 1279 1276 1275 1274 1274 1274 1275 1276 1278 1280 1282 1284 1285 1287 1288 1290 1291
1404 1398 1392 1387 1382 1376 1371 1365 1359 1353 1348 1343 1337 1331 1325 1320 1314 1308 1303 1297 1293 1288 1284 1281 1277 1274 1272 1270 1269 1268 1268 1269 1271 1272 1274 1276 1278 1279 1281 1283 1284 1285 1287
1396 1390 1384 1379 1374 1369 1363 1356 1351 1346 1340 1335 1329 1323 1317 1311 1305 1299 1294 1289 1284 1279 1275 1272 1270 1267 1266 1264 1264 1264 1265 1266 1268 1270 1272 1273 1275 1276 1277 1279 1280 1281 1282